Regional Weather Roundup
Issued by NWS

Home | Current Version | Previous Version | Text Only | Print | Product List | Glossary On
Versions: 1 2 3 4 5 6 7 8 9 10 11 12 13 14 15 16 17 18 19 20 21 22 23 24 25 26 27 28 29 30 31 32 33 34 35 36 37 38 39 40 41 42 43 44 45 46 47 48 49 50
276
ASUS42 KKEY 220210
RWRKEY

FLORIDA REGIONAL WEATHER ROUNDUP FOR THE FLORIDA KEYS
NATIONAL WEATHER SERVICE KEY WEST FLORIDA
900 PM EST TUE FEB 21 2017

...SOUTH FLORIDA AND THE KEYS...

CITY           SKY/WX    TMP DP  RH WIND       PRES   REMARKS
FORT MYERS     CLOUDY    73  64  73 SE3       29.94F
SW REGIONAL AP CLOUDY    73  61  65 SE7       29.95F
NAPLES         MOCLDY    73  66  78 SE5       29.95F
MIAMI          MOCLDY    70  62  76 SE13      29.96F
WEST KENDALL   PTCLDY    73  62  68 SE9       29.96S
HOMESTEAD      MOCLDY    72  65  79 SE7       29.95F
MARATHON       PTCLDY    76  62  62 SE10      29.95S
BOCA CHICA NAS CLOUDY    73  61  65 SE12      29.94F
KEY WEST INTL  PTCLDY    75  60  59 SE12      29.94F

...INTERNATIONAL WEATHER...

CITY           SKY/WX    TMP DP  RH WIND       PRES   REMARKS
NASSAU BAHAMAS CLOUDY    73  55  53 NE5       30.03R
CANCUN MEXICO  MOCLDY    79  72  78 SE10      29.90R
COZUMEL MEXICO PTCLDY    77  73  88 SE5       29.88S

ADJACENT COASTAL WATERS...

STATION/POSITION TIME  SKY/WX   TEMP    WIND        PRES    WAVE
                                AIR SEA DIR/SP/G            HT/PER
                 (UTC)          (F)     (DEG/KT/KT) (MB)    (FT/S)
PULASKI SHOAL LI 0200            75     140/ 11/ 12 1013.6R
SAND KEY         0150            75     150/ 14/ 15 1014.2F
LONG KEY         0100            75 76  130/ 15/ 17 1014.3F
MOLASSES REEF    NOT AVBL
FOWEY ROCKS      0200            74 75  110/ 18/ 19 1014.8F
Buoy 42097       0200                                 N/A     4/ 5

$$




USA.gov is the U.S. government's official web portal to all federal, state and local government web resources and services.